User: anonymous   Login
Location: Unspecified
(0.0000°N, 0.0000°E)
Time: 03:31:56
(UTC+00:00)
Language:

Galileo 5 - Orbit

View from above orbital plane
View from above orbital plane
View from above satellite
View from above satellite

Ground track
Ground track

The orbit data is extracted from the following two-line orbital elements,

1 40128U 14050A   17348.62824706 -.00000116 +00000-0 +00000-0 0  9992
2 40128 050.3978 037.9807 1636095 069.6639 307.1835 01.85520144020719
Epoch (UTC): 14 December 2017 15:04:40
Eccentricity: 0.1636095
inclination: 50.3978°
perigee height: 17022 km
apogee height: 26176 km
right ascension of ascending node: 37.9807°
argument of perigee: 69.6639°
revolutions per day: 1.85520144
mean anomaly at epoch: 307.1835°
orbit number at epoch: 2071

The dashed part of the orbit path shows where the satellite is in the earth's shadow,  

DLR